Simultaneous Nadir Overpasses (SNOs) Predictions

Prediction of SNOs between GOES-16 and NOAA-20 Satellite Orbit:

Table of predicted SNOs for the next 14.0 days since TLE Epoch: 12/3/2022
Index Date Time (GOES-16) GOES-16 Lat,Lon NOAA-20 Lat,Lon Distance(km) Time Diff (sec)
1 12/03/2022 06:41:48 -0.01, -75.19 0.92, -79.43 483.10 80
2 12/04/2022 06:25:43 -0.00, -75.20 -0.09, -74.90 34.42 80
3 12/06/2022 18:26:11 -0.00, -75.22 -0.11, -75.65 50.34 80
4 12/07/2022 18:10:06 -0.01, -75.22 0.90, -71.12 467.56 80
5 12/09/2022 06:31:53 0.00, -75.24 0.23, -76.39 131.14 80
6 12/10/2022 06:10:27 0.01, -75.24 -0.73, -71.84 386.93 80
7 12/11/2022 18:32:22 -0.01, -75.26 -0.42, -77.15 214.65 80
8 12/12/2022 18:16:17 -0.01, -75.28 0.60, -72.61 303.84 80
9 12/14/2022 06:38:03 0.01, -75.30 0.59, -77.87 293.49 80
10 12/15/2022 06:16:37 0.01, -75.32 -0.43, -73.34 225.31 80
11 12/16/2022 18:38:33 -0.00, -75.35 -0.71, -78.65 375.12 80
